Probability
41 49 63 77 87 93 95 97 99 100 99 93 78 52 22 5 1 0 0 0 0 0 0 0 0 0 0 0 0 0 0 0 0 0 0 0 0 0 0 0 0 0 0
58 64 75 86 92 96 97 98 99 100 98 89 69 39 14 3 0 0 0 0 0 0 0 0 0 0 0 0 0 0 0 0 0 0 0 0 0 0 0 0 0 0 0
79 84 91 96 98 99 99 99 99 100 94 77 48 20 5 1 0 0 0 0 0 0 0 0 0 0 0 0 0 0 0 0 0 0 0 0 0 0 0 0 0 0 0
91 95 99 100 100 100 100 100 100 97 83 55 24 6 1 0 0 0 0 0 0 0 0 0 0 0 0 0 0 0 0 0 0 0 0 0 0 0 0 0 0 0 0
95 98 100 100 100 100 100 99 95 83 59 28 8 1 0 0 0 0 0 0 0 0 0 0 0 0 0 0 0 0 0 0 0 0 0 0 0 0 0 0 0 0 0
96 98 100 100 100 97 92 84 71 52 28 10 2 0 0 0 0 0 0 0 0 0 0 0 0 0 0 0 0 0 0 0 0 0 0 0 0 0 0 0 0 0 0
96 98 99 99 95 83 66 48 32 18 7 2 0 0 0 0 0 0 0 0 0 0 0 0 0 0 0 0 0 0 0 0 0 0 0 0 0 0 0 0 0 0 0
96 97 96 93 80 55 30 15 7 2 0 0 0 0 0 0 0 0 0 0 0 0 0 0 0 0 0 0 0 0 0 0 0 0 0 0 0 0 0 0 0 0 0
81 80 78 70 51 25 8 2 0 0 0 0 0 0 0 0 0 0 0 0 0 0 0 0 0 0 0 0 0 0 0 0 0 0 0 0 0 0 0 0 0 0 0
47 46 42 34 20 8 1 0 0 0 0 0 0 0 0 0 0 0 0 0 0 0 0 0 0 0 0 0 0 0 0 0 0 0 0 0 0 0 0 0 0 0 0
17 15 12 8 4 1 0 0 0 0 0 0 0 0 0 0 0 0 0 0 0 0 0 0 0 0 0 0 0 0 0 0 0 0 0 0 0 0 0 0 0 0 0
4 3 1 0 0 0 0 0 0 0 0 0 0 0 0 0 0 0 0 0 0 0 0 0 0 0 0 0 0 0 0 0 0 0 0 0 0 0 0 0 0 0 0
1 0 0 0 0 0 0 0 0 0 0 0 0 0 0 0 0 0 0 0 0 0 0 0 0 0 0 0 0 0 0 0 0 0 0 0 0 0 0 0 0 0 0
0 0 0 0 0 0 0 0 0 0 0 0 0 0 0 0 0 0 0 0 0 0 0 0 0 0 0 0 0 0 0 0 0 0 0 0 0 0 0 0 0 0 0
0 0 0 0 0 0 0 0 0 0 0 0 0 0 0 0 0 0 0 0 0 0 0 0 0 0 0 0 0 0 0 0 0 0 0 0 0 0 0 0 0 0 0
0 0 0 0 0 0 0 0 0 0 0 0 0 0 0 0 0 0 0 0 0 0 0 0 0 0 0 0 0 0 0 0 0 0 0 0 0 0 0 0 0 0 0
0 0 0 0 0 0 0 0 0 0 0 0 0 0 0 0 0 0 0 0 0 0 0 0 0 0 0 0 0 0 0 0 0 0 0 0 0 0 0 0 0 0 0
0 0 0 0 0 0 0 0 0 0 0 0 0 0 0 0 0 0 0 0 0 0 0 0 0 0 0 0 0 0 0 0 0 0 0 0 0 0 0 0 0 0 0
0 0 0 0 0 0 0 0 0 0 0 0 0 0 0 0 0 0 0 0 0 0 0 0 0 0 0 0 0 0 0 0 0 0 0 0 0 0 0 0 0 0 0
0 0 0 0 0 0 0 0 0 0 0 0 0 0 0 0 0 0 0 0 0 0 0 0 0 0 0 0 0 0 0 0 0 0 0 0 0 0 0 0 0 0 0
0 0 0 0 0 0 0 0 0 0 0 0 0 0 0 0 0 0 0 0 0 0 0 0 0 0 0 0 0 0 0 0 0 0 0 0 0 0 0 0 0 0 0
0 0 0 0 0 0 0 0 0 0 0 0 0 0 0 0 0 0 0 0 0 0 0 0 0 0 0 0 0 0 0 0 0 0 0 0 0 0 0 0 0 0 0
0 0 0 0 0 0 0 0 0 0 0 0 0 0 0 0 0 0 0 0 0 0 0 0 0 0 0 0 0 0 0 0 0 0 0 0 0 0 0 0 0 0 0
0 0 0 0 0 0 0 0 0 0 0 0 0 0 0 0 0 0 0 0 0 0 0 0 0 0 0 0 0 0 0 0 0 0 0 0 0 0 0 0 0 0 0
0 0 0 0 0 0 0 0 0 0 0 0 0 0 0 0 0 0 0 0 0 0 0 0 0 0 0 0 0 0 0 0 0 0 0 0 0 0 0 0 0 0 0
0 0 0 0 0 0 0 0 0 0 0 0 0 0 0 0 0 0 0 0 0 0 0 0 0 0 0 0 0 0 0 0 0 0 0 0 0 0 0 0 0 0 0
Wind_Speed
14 11 12 13 12 12 12 12 14 12 11 10 9 8 6 5 5 5 6 8 8 8 7 6 5 5 4 4 4 3 5 5 4 3 4 4 3 3 3 3 4 5 5
11 13 13 12 12 11 10 9 12 11 10 9 7 6 7 6 5 4 6 7 8 7 7 6 5 5 5 6 6 4 3 3 4 2 2 4 5 3 3 3 4 5 4
22 19 15 12 12 11 10 9 11 11 10 10 9 10 7 6 4 5 4 5 7 7 6 7 6 6 6 5 5 5 4 2 3 3 3 2 2 4 4 3 4 4 4
19 19 16 14 13 10 7 8 9 10 10 11 12 12 8 6 4 4 4 4 5 6 7 7 7 6 5 5 4 4 3 3 2 2 3 2 2 1 5 5 4 4 4
18 19 16 13 10 8 8 8 10 10 11 11 11 11 9 7 5 5 5 4 4 5 6 6 6 6 4 4 4 3 3 2 2 1 1 1 1 1 2 4 6 5 4
12 10 9 10 9 9 9 10 12 10 11 12 11 12 13 11 8 6 5 3 3 3 5 6 5 5 4 3 3 3 3 2 1 1 1 1 2 3 3 4 5 5 5
13 13 12 12 12 12 11 11 13 11 11 12 12 12 12 10 9 7 6 5 3 3 3 4 4 3 2 2 2 2 1 1 2 3 3 3 4 4 3 4 5 5 4
15 14 13 13 12 12 11 11 13 12 11 12 11 10 9 6 5 5 5 6 4 3 3 4 3 3 2 3 2 1 2 3 4 6 5 4 5 4 4 4 5 7 5
14 14 13 12 12 11 10 11 12 11 10 10 10 9 9 7 7 7 7 6 4 3 4 3 2 2 2 3 3 3 4 2 2 4 4 3 4 3 3 3 3 4 8
13 12 12 12 12 11 10 10 10 11 10 9 8 9 9 8 9 9 9 7 5 4 4 3 2 1 2 3 2 2 3 3 3 2 3 3 2 3 2 2 2 3 4
11 10 10 11 12 12 11 10 10 10 9 9 9 9 8 8 8 8 7 6 4 4 3 1 1 1 1 3 4 4 4 4 4 4 4 4 4 3 3 3 3 3 3
8 9 10 11 12 12 11 11 10 10 8 8 8 8 7 7 7 6 5 5 4 3 2 2 3 5 6 6 6 5 4 4 4 5 5 6 5 5 5 4 5 5 5
7 7 8 8 9 10 11 10 9 9 8 8 7 7 7 7 7 6 5 5 5 6 6 6 7 6 6 5 4 3 3 3 4 5 5 6 6 6 6 6 6 5 6
6 6 6 7 8 8 9 9 8 7 7 7 7 6 6 6 6 6 7 7 7 7 6 5 5 5 4 4 3 2 3 4 5 6 6 6 6 7 7 6 6 7 7
6 6 7 7 7 8 8 8 7 6 7 8 8 7 7 7 8 8 8 7 6 5 4 4 4 3 3 2 2 3 5 5 7 7 7 7 11 13 9 9 8 8 8
6 7 8 8 8 8 9 9 9 8 9 10 9 8 8 8 7 6 5 5 5 5 5 5 3 1 1 2 5 6 5 6 7 8 8 9 10 13 17 19 19 17 13
6 7 7 7 8 8 9 10 9 9 10 9 8 7 6 6 5 5 5 5 4 4 4 4 3 1 0 2 6 10 6 6 7 7 7 9 10 13 9 13 18 18 21
8 7 8 8 8 8 9 9 9 9 8 6 5 3 4 4 5 5 5 4 2 2 2 2 3 2 2 3 6 10 7 6 7 7 8 9 10 10 11 11 12 12 12
8 8 8 8 8 8 8 8 7 6 5 3 2 2 3 5 5 4 3 2 2 2 2 3 4 3 1 1 5 8 5 6 8 8 9 10 10 13 15 13 12 12 12
8 8 8 9 8 6 6 6 4 3 3 3 2 3 5 5 4 3 2 2 3 3 4 4 4 2 1 4 7 9 4 6 7 8 9 12 12 15 17 11 10 11 11
8 8 8 7 5 4 3 3 2 2 2 4 6 6 6 5 4 3 3 4 4 4 4 4 4 3 4 6 9 12 6 6 8 8 7 8 14 17 16 13 9 11 12
7 7 6 4 2 2 1 1 2 3 4 6 7 6 5 5 5 5 4 4 4 3 3 3 4 4 5 7 10 14 13 11 7 7 7 9 16 17 16 11 12 14 10
6 4 5 3 1 1 1 1 2 5 6 7 6 5 5 4 4 4 4 3 3 2 2 3 3 4 5 6 11 13 15 15 8 7 13 16 16 14 10 11 13 9 5
4 4 3 1 1 1 0 2 3 5 7 7 5 4 4 3 3 3 3 3 2 2 2 3 4 5 5 5 7 8 8 11 9 8 11 14 13 10 10 9 7 5 5
3 3 1 1 0 2 3 3 3 5 6 6 5 4 3 3 2 2 2 3 2 2 1 1 2 4 5 7 12 8 6 6 7 8 5 5 7 7 7 7 6 6 6
3 2 1 2 3 5 5 4 4 5 6 5 4 3 2 2 2 2 1 1 2 3 3 3 3 4 7 11 12 12 12 12 13 6 4 6 6 6 7 7 6 6 6
Wind_Direction
197 181 174 165 162 163 162 162 162 158 146 139 134 128 117 99 81 76 86 91 93 90 87 88 74 68 73 70 71 72 54 34 21 31 350 335 357 38 50 37 34 21 13
171 173 171 170 168 164 156 155 163 158 151 146 137 124 117 101 84 73 63 72 81 81 85 83 75 68 74 61 52 60 67 30 28 65 42 351 342 342 7 13 31 13 359
175 174 170 170 163 162 160 159 161 153 142 134 121 114 101 93 88 88 77 68 75 79 88 84 77 71 77 80 73 73 89 67 27 55 98 80 310 314 324 355 15 359 356
173 171 168 166 163 154 141 138 142 135 131 130 132 133 128 123 118 116 107 97 93 96 96 87 82 85 92 98 91 87 94 101 58 30 52 111 173 275 315 323 332 343 351
174 172 168 156 138 127 125 120 119 119 119 119 123 118 111 109 112 108 104 90 87 96 100 96 95 100 99 105 102 93 82 98 112 86 50 36 35 150 186 290 312 322 315
159 138 119 113 108 105 102 104 103 103 111 115 117 122 126 129 135 134 129 115 99 94 99 97 99 109 113 120 125 97 78 93 104 156 183 192 229 251 224 248 271 280 284
124 118 118 115 111 106 102 103 104 104 110 114 118 125 130 137 145 147 144 141 122 104 105 97 107 111 118 119 116 93 84 221 232 232 236 230 228 228 234 252 268 266 266
108 109 110 112 111 108 107 110 108 109 109 111 114 118 119 122 129 134 137 140 125 123 128 116 122 126 121 130 153 183 235 228 231 240 241 250 258 253 248 253 276 290 279
98 100 100 101 103 102 102 106 109 106 104 106 107 109 109 105 103 102 102 107 105 109 117 127 143 155 166 186 204 237 259 279 277 276 281 282 281 282 277 276 267 281 299
91 92 95 99 100 99 96 93 96 101 99 95 97 102 98 98 101 102 102 108 113 113 123 129 152 224 256 261 260 305 347 26 9 357 359 323 292 297 296 285 274 253 266
99 100 102 106 109 108 105 99 93 93 93 92 92 93 92 95 97 101 108 114 116 118 120 134 166 252 351 38 66 67 59 52 20 359 344 317 299 285 282 276 268 261 254
102 107 110 112 113 112 108 103 100 99 98 97 94 91 89 89 91 93 94 96 93 75 57 44 47 62 74 75 77 63 45 26 355 333 322 306 299 285 273 268 263 261 252
92 94 100 109 114 113 112 110 109 109 107 103 97 92 89 90 94 93 86 76 64 53 49 60 80 87 84 78 71 62 28 352 324 310 302 295 290 285 280 275 269 267 273
87 89 94 100 106 107 111 112 110 110 108 101 94 89 89 91 92 82 70 64 64 65 66 82 100 102 98 84 61 32 355 331 317 307 300 296 292 285 284 287 279 281 279
98 97 102 105 105 104 101 99 95 95 101 96 89 85 83 80 76 72 70 72 74 76 76 82 100 112 99 75 39 355 341 326 316 308 299 299 308 312 311 310 302 297 291
127 113 110 110 107 103 98 90 82 80 85 86 84 80 78 77 76 81 89 89 80 66 60 59 69 86 84 51 16 355 326 315 308 304 301 303 305 311 315 312 308 303 298
124 109 101 95 93 91 92 89 85 82 80 78 78 77 80 88 94 98 93 87 79 68 64 54 54 61 348 43 12 352 333 310 303 302 304 310 309 312 305 307 308 302 296
112 103 99 93 87 88 85 82 77 77 77 75 73 79 99 104 105 100 93 84 77 76 69 37 25 36 60 57 10 344 332 308 303 302 300 299 303 305 307 308 301 295 292
111 108 105 102 94 87 87 88 83 82 84 89 97 116 117 113 106 99 90 75 72 54 41 33 28 44 52 360 341 343 317 307 306 306 307 308 305 305 309 309 301 299 298
109 111 106 100 94 89 90 96 102 108 122 127 104 97 106 106 106 102 81 61 71 63 50 35 26 35 272 285 332 349 323 318 318 313 309 310 307 310 315 313 304 303 307
113 111 106 103 108 110 104 117 138 153 148 113 99 98 104 107 102 83 73 72 74 62 44 24 2 352 328 320 338 345 336 321 315 311 312 311 313 318 320 318 308 307 311
114 110 110 112 118 112 112 124 166 155 127 117 109 104 98 93 90 86 76 73 76 59 26 5 350 338 334 334 335 334 330 326 312 308 309 311 316 322 323 324 323 326 328
118 111 114 113 69 350 117 111 148 136 126 118 114 109 95 87 101 108 100 75 62 53 13 0 345 330 327 328 332 330 327 330 326 309 312 318 321 326 326 326 331 337 341
117 106 105 98 306 302 178 162 155 132 126 127 128 124 117 114 114 120 122 112 92 58 18 355 335 323 322 327 332 327 323 327 329 322 317 319 325 332 329 332 338 339 332
118 126 152 216 220 102 92 96 103 111 121 132 141 142 149 156 155 147 155 150 167 167 167 289 298 312 318 316 318 318 317 321 320 320 317 332 337 339 340 342 342 340 341
152 174 192 129 112 102 92 80 79 96 115 129 147 159 168 172 166 153 104 160 181 185 203 258 293 290 294 314 329 339 342 343 340 343 339 339 339 338 340 342 341 339 349